Regional Weather Roundup
Issued by NWS

Home | Current Version | Previous Version | Text Only | Print | Product List | Glossary Off
Versions: 1 2 3 4 5 6 7 8 9 10 11 12 13 14 15 16 17 18 19 20 21 22 23 24 25 26 27 28 29 30 31 32 33 34 35 36 37 38 39 40 41 42 43 44 45 46 47 48 49 50

000
ASUS45 KBOU 200507
RWRCO

WEATHER ROUNDUP FOR COLORADO
NATIONAL WEATHER SERVICE DENVER/BOULDER CO
1100 PM MDT TUE SEP 19 2017

NOTE: "FAIR" INDICATES FEW OR NO CLOUDS BELOW 12000 FEET WITH NO
SIGNIFICANT WEATHER AND/OR OBSTRUCTIONS TO VISIBILITY.

COZ001>005-013-030-031-200600-
...NORTHWEST COLORADO...

CITY           SKY/WX    TMP DP  RH WIND       PRES   REMARKS
CRAIG          CLOUDY    42  38  85 E3        30.03F
HAYDEN         RAIN      37  36  96 S5        30.06F
MEEKER         LGT RAIN  42  38  85 NE9       29.99S
RABBIT EARS PA LGT SNOW  28  28 100 NW7G20    30.10R VSB 3/4 WCI  21
STEAMBOAT SPGS CLOUDY    34  33  95 SW7       30.08R WCI  28
WALDEN         CLOUDY    34  32  93 CALM      30.07S
$$

COZ006>008-011-200600-
...WEST CENTRAL VALLEYS...

CITY           SKY/WX    TMP DP  RH WIND       PRES   REMARKS
GRAND JUNCTION FAIR      62  38  40 N7        29.81R
MONTROSE       FAIR      56  31  38 S6        29.91R
EAGLE          CLOUDY    61  31  32 NW9       29.91R
RIFLE          FAIR      55  36  48 NW13      29.91R
DELTA          FAIR      70  28  21 CALM      29.84S
NUCLA          FAIR      59  27  29 SE7       29.95R
$$

COZ017>023-064>068-200600-
...SOUTHWEST COLORADO...

CITY           SKY/WX    TMP DP  RH WIND       PRES   REMARKS
DURANGO        FAIR      52  27  38 VRB3      30.02R
CORTEZ         FAIR      67  19  16 S18       29.95S
PAGOSA SPRINGS FAIR      52  21  30 CALM      30.09R
TELLURIDE      FAIR      54  22  29 CALM      30.14S
WOLF CREEK PAS FAIR      41  18  38 SW30G39   30.31F
$$

COZ009-010-012-014-032>034-037-058>063-200600-
...CENTRAL COLORADO...

CITY           SKY/WX    TMP DP  RH WIND       PRES   REMARKS
ASPEN          CLOUDY    63  24  22 SW9G29    29.96R
BUENA VISTA    FAIR      60  19  20 NW5       29.98F
COPPER MTN     CLOUDY    45  16  31 S10G22    30.20R
BERTHOUD PASS  FAIR      36  28  75 W30G46    30.16F
COTTONWOOD PAS FAIR      55  14  19 W25G43    30.06S
GUNNISON       FAIR      50  25  37 E5        30.01R
KREMMLING      LGT RAIN  46  34  61 N15G22    30.00S
LEADVILLE      CLOUDY    49  17  28 S16G23    30.07R
MONARCH PASS   FAIR      41  18  38 W40G51    30.32R
SALIDA         FAIR      63  17  17 SW12G18   30.04S
SUNLIGHT       LGT RAIN  41  30  65 SW16G36   30.15R
WILKERSON PASS FAIR      43  16  33 SW17G26   30.15S
$$

COZ069>075-200600-
...SAN LUIS VALLEY/SANGRE DE CRISTO MOUNTAINS...

CITY           SKY/WX    TMP DP  RH WIND       PRES   REMARKS
ALAMOSA        FAIR      47  24  40 S8        30.01S
DEL NORTE      FAIR      57  20  24 W10       30.03S
LA VETA PASS   FAIR      52  18  25 S32G47    30.24R
SAGUACHE       FAIR      45  28  53 N7        30.02S
$$

COZ035-036-038>040-200600-
...NORTHERN COLORADO FRONT RANGE...

CITY           SKY/WX    TMP DP  RH WIND       PRES   REMARKS
DENVER INTL AP FAIR      47  28  47 SE13      29.84F
DMNS CITY PARK   N/A     51  33  50 E10G16    29.85R
AURORA         CLEAR     46  30  54 SE14      29.86F
FRONT RANGE AP FAIR      48  32  53 SE10      29.87S
ERIE MUNI ARPT FAIR      53  29  40 SE7       29.89R
BOULDER MUN AP FAIR      54  32  43 CALM      29.84R
CENTENNIAL     FAIR      49  32  52 SE10      29.86F
BROOMFIELD     FAIR      52  32  46 S8        29.86R
FORT COLLINS   FAIR      51  32  48 CALM      29.86R
LONGMONT       FAIR      54  32  43 CALM      29.86R
$$

COZ041-046-047-076>085-087-088-200600-
...PIKES PEAK/PALMER DIVIDE AND SOUTHERN FOOTHILLS...

CITY           SKY/WX    TMP DP  RH WIND       PRES   REMARKS
COLO. SPRINGS  FAIR      50  32  50 N10       29.87S
A. F. ACADEMY  FAIR      51  30  45 NW14      29.86F
SCHRIEVER AFB  FAIR      48  30  50 NE8G25    29.89R
CHEYENNE MTN   NOT AVBL
ELLICOTT         N/A    N/A N/A N/A NE20G28   29.87R
FALCON         FAIR      44  29  56 NE15      29.91S
FORT CARSON    FAIR      49  33  54 NW6       29.85R
LIMON          FAIR      45  30  55 N9        29.89R
MONUMENT HILL  FAIR      37  30  75 SE7       29.93F
CANON CITY     CLEAR     66  25  20 CALM      29.80R
WALSENBURG     FAIR      70  19  14 CALM      29.87S
TRINIDAD       FAIR      68  23  18 W8        29.85R
$$

COZ042>045-048>051-090-091-200600-
...NORTHEAST COLORADO...

CITY           SKY/WX    TMP DP  RH WIND       PRES   REMARKS
GREELEY ARPT   FAIR      52  35  52 W10       29.84R
AKRON          FAIR      50  31  48 NW20      29.85R
BURLINGTON     FAIR      55  33  43 N20G32    29.84R
WRAY           FAIR      55  30  38 N20G28    29.81R
YUMA           FAIR      52  19  28 NW12G20   29.83R
STERLING       FAIR      54  32  43 N21       29.82R
HOLYOKE        NOT AVBL
FORT MORGAN    FAIR      52  31  45 NW29G44   29.83R
$$

COZ086-089-092>099-200600-
...SOUTHEAST COLORADO...

CITY           SKY/WX    TMP DP  RH WIND       PRES   REMARKS
PUEBLO         FAIR      59  34  39 N20G25    29.80R
LA JUNTA       FAIR      62  36  37 N23G31    29.78R
LAMAR          FAIR      64  38  38 NE20G29   29.75R
SPRINGFIELD    NOT AVBL
$$



USA.gov is the U.S. government's official web portal to all federal, state and local government web resources and services.